Showing default

YUNHAI 2-1D, 43912

Orbit data source: Space-Track

YUNHAI 2-1D, 43912 is a payload satellite owned by CASC (CN) in LEO that was launched on Sat, 29 Dec 2018 UTC via a CHANG ZHENG 2D/YZ-3 launch vehicle from the Jiuquan Satellite Launch Center, China (JSC). Payload-class satellites include a variety of spacecraft equipped with specific instruments for various scientific and technological missions. These include communications satellites like Starlink; space stations such as the ISS; scientific satellites like the Hubble; Earth observation satellites from companies like Planet Labs, Umbra, and HawkEye 360; GPS; miniature CubeSats for education and research; and military/defense satellites.

Loading next visibility...
Identifier
43912, 2018-112D
Orbit
LEO
Country
Flag of CNCN / PRC
Related business
Manufacturer
DFH Shenzhen
Mission
Operational Defense Meteo Radio Occ.
Bus & Motor
YH-2, Unknown motor
Mass
~100 kg wet, ~100 kg dry
Launch date (UTC)
2018-12-29 (7 years ago)
Launch vehicle
CHANG ZHENG 2D/YZ-3
Launch site
Jiuquan Satellite Launch Center, China (JSC)
Object type
Payload
Rocket body
Debris
Shape & HBR
Box + 2 Pan, 0.5 m
Radar Cross Section
0.166 m², Large (>1 m²)

Expand to show TLE details & history
Last TLE update: 6 hours ago

TLE from 6 hours ago
0 YUNHAI 2-1D
1 43912U 18112D   25310.24941662  .00000207  00000-0  14458-3 0  9991
2 43912  50.0087 153.7020 0015324 282.5555  77.3646 14.28894377355702
Epoch: 2025-11-06T05:59Z
TLE epoch observation values (Epoch: 2025-11-06T05:59:09.595Z)
Latitude
-0.00005°
Longitude
18.20154°
Altitude
793.572 km
Speed
7.459 km/s
True Right ascension
10h 14m 48s
True Declination
0° 00' 00"
Sunlit
Object was in daylight at epoch
Visualization orbit readout
Latitude
Unknown
Longitude
Unknown
Altitude
Unknown
Speed
Unknown
Apparent Right ascension
Unknown
Apparent Declination
Unknown
Sunlit
N/A
Visualization observer readout
Local Sidereal Time
07:41:08
Azimuth
Unknown
Elevation
Unknown
Doppler factor
Unknown
Orbital elements
Apogee altitude
807.161 km
Perigee altitude
785.173 km
Semi-major axis
7,174.304 km
Eccentricity
0.00153
Inclination
50.0087°
RAAN
153.702°
Arg. of periapsis
282.5555°
True anomaly
77.53602°
Mean anomaly
77.3646°
Eccentric anomaly
77.4503°
Mean motion
3.57169 °/min
Orbital period
100.79 mins
BSTAR
0.00014458
Loading maneuver chart data...
Computing Atmospheric mass density...
Loading historical data...
Loading historical data...
Loading historical data...
Loading historical data...
Loading historical data...
Loading historical data...
Loading historical data...

Documentation

Showing up to 5 results
|